DateTimeUTC,F1_A11,F1_S11,BsB_S11,BsG_S11,BsR_S11,BbsB_S11,BbsG_S11,BbsR_S11,BaB_A11,BaG_A11,BaR_A11,Tu_S11,T_S11,Uu_S11,U_S11,P_S11,T1_A11
2021-12-14T19:00:00Z,00000200,21000000,,,,,,,-000.50,-000.72,-000.20,19.4,26.5,,00.0,0643.0,31.1
2021-12-14T19:01:00Z,00000200,21000000,,,,,,,-000.39,-000.12,0000.10,19.4,26.5,,00.0,0643.0,31.1
2021-12-14T19:02:00Z,00000200,21000000,,,,,,,0000.26,0000.00,-000.24,19.3,26.5,,00.0,0643.0,31.0
2021-12-14T19:03:00Z,00000200,61000000,,,,,,,0000.07,0000.44,0000.30,19.3,26.5,,00.0,0643.0,31.0
2021-12-14T19:04:00Z,00000200,41000000,-000.16,-000.29,0000.03,-000.16,-000.06,0000.20,0000.02,0000.22,0000.13,19.5,26.3,,00.0,0643.9,31.1
2021-12-14T19:05:00Z,00000200,01000000,0000.42,0000.23,-000.01,-000.43,0000.53,-000.11,0000.63,0000.15,0000.09,19.6,26.3,,00.0,0643.9,31.1
2021-12-14T19:06:00Z,00000200,01000000,-000.08,-000.25,-000.24,-000.40,0000.40,-000.02,0000.21,0000.44,0000.20,19.7,26.2,,00.0,0643.9,31.1
2021-12-14T19:07:00Z,00000200,01000000,-000.26,0000.09,-000.20,-000.51,0000.05,-000.16,0000.23,0000.10,0000.23,19.7,26.3,,00.0,0644.0,31.1
2021-12-14T19:08:00Z,00000200,01000000,-000.28,-000.32,0000.17,0000.86,0000.02,0000.32,-000.07,-000.10,0000.15,19.8,26.3,,00.0,0644.0,31.1
2021-12-14T19:09:00Z,00000200,01000000,0000.28,-000.12,-000.04,0000.88,0000.17,0000.01,0000.26,0000.08,0000.04,19.8,26.3,,00.0,0643.9,31.1
2021-12-14T19:10:00Z,00000200,01000000,0000.55,0000.05,-000.05,0000.14,0000.13,-000.20,0000.07,0000.48,0000.03,19.9,26.3,,00.0,0644.0,31.1
2021-12-14T19:11:00Z,00000200,01000000,0000.10,-000.22,0000.24,-000.07,-000.08,-000.04,0000.58,0000.07,0000.45,19.9,26.4,,00.0,0644.0,31.2
2021-12-14T19:12:00Z,00000200,01000000,0000.10,0000.03,0000.30,0000.29,0000.10,-000.19,0000.06,-000.19,-000.26,20.0,26.4,,00.0,0644.0,31.1
2021-12-14T19:13:00Z,00000200,01000000,0000.34,0000.25,-000.01,0000.42,0000.21,-000.16,-000.15,0000.63,0000.15,20.0,26.4,,00.0,0644.0,31.1
2021-12-14T19:14:00Z,00000200,01000000,-000.55,-000.07,-000.03,-000.13,0000.32,-000.12,0000.27,0000.17,0000.02,20.0,26.4,,00.0,0644.0,31.1
2021-12-14T19:15:00Z,00000200,01000000,0000.40,-000.12,0000.14,-000.16,-000.07,0000.21,-000.17,-000.25,0000.12,19.9,26.4,,00.0,0643.9,31.1
2021-12-14T19:16:00Z,00000200,01000000,-000.04,-000.34,-000.07,0000.14,0000.04,-000.05,0000.16,0000.10,-000.07,19.8,26.4,,00.0,0643.9,31.1
2021-12-14T19:17:00Z,00000200,01000000,0000.44,-000.06,0000.15,-000.26,0000.04,0000.10,-000.00,-000.05,-000.03,19.8,26.3,,00.0,0643.9,31.1
2021-12-14T19:18:00Z,00000200,01000000,-001.12,0000.18,0000.09,0000.14,-000.13,-000.35,-000.06,0000.11,-000.02,19.9,26.3,,00.0,0644.0,31.1
2021-12-14T19:19:00Z,00000200,01000000,-000.18,0000.05,0000.01,-000.50,0000.13,0000.26,-000.21,-000.18,0000.33,19.9,26.4,,00.0,0643.9,31.1
2021-12-14T19:20:00Z,00000200,01000000,0000.29,-000.32,-000.37,0000.82,-000.13,-000.40,0000.18,-000.02,-000.02,20.0,26.4,,00.0,0644.0,31.1
2021-12-14T19:21:00Z,00000200,01000000,0000.45,0000.16,0000.06,0000.54,0000.36,-000.01,0000.17,0000.36,-000.14,20.0,26.4,,00.0,0644.0,31.1
2021-12-14T19:22:00Z,00000200,01000000,-000.39,0000.28,-000.11,0000.20,0000.43,-000.37,-000.04,-000.16,-000.13,20.1,26.4,,00.0,0644.0,31.1
2021-12-14T19:23:00Z,00000200,01000000,-000.37,-000.23,0000.10,0000.94,-000.03,-000.09,0000.02,0000.27,0000.49,20.1,26.5,,00.0,0644.0,31.1
2021-12-14T19:24:00Z,00000200,01000000,0000.06,-000.29,0000.23,0000.28,0000.13,0000.04,0000.25,0000.27,-000.08,20.2,26.5,,00.0,0644.0,31.1
2021-12-14T19:25:00Z,00000200,01000000,0000.79,-000.24,0000.09,-000.27,0000.05,-000.03,0000.14,-000.30,0000.22,20.2,26.5,,00.0,0644.0,31.2
2021-12-14T19:26:00Z,00000200,01000000,-000.06,-000.14,-000.14,-000.81,0000.38,-000.34,-000.13,-000.16,-000.50,20.2,26.5,,00.0,0644.0,31.2
2021-12-14T19:27:00Z,00000200,01000000,-000.36,0000.10,0000.09,0000.01,-000.02,0000.15,0000.26,0000.78,0000.26,20.2,26.6,,00.0,0644.0,31.2
2021-12-14T19:28:00Z,00000200,01000000,-000.74,-000.07,-000.36,0000.13,0000.32,-000.08,0000.21,0000.02,0000.16,20.1,26.6,,00.0,0644.0,31.1
2021-12-14T19:29:00Z,00000200,01000000,-000.80,-000.13,-000.25,-000.11,0000.22,-000.05,-000.00,-000.36,0000.28,20.1,26.5,,00.0,0644.0,31.1
2021-12-14T19:30:00Z,00000200,01000000,0000.23,-000.20,0000.19,0000.38,-000.04,0000.09,-000.23,0000.02,-000.37,20.0,26.5,,00.0,0643.9,31.1
2021-12-14T19:31:00Z,00000200,01000000,0000.40,-000.44,0000.31,0000.81,0000.25,-000.06,0000.15,-000.02,0000.34,19.9,26.4,,00.0,0643.9,31.1
2021-12-14T19:32:00Z,00000200,01000000,-000.62,-000.45,-000.05,-000.54,0000.26,-000.17,0000.20,0000.15,-000.29,19.9,26.4,,00.0,0643.9,31.1
2021-12-14T19:33:00Z,00000200,01000000,-000.53,-000.15,-000.13,-000.12,0000.12,-000.61,-000.04,0000.26,0000.54,19.9,26.4,,00.0,0643.9,31.1
2021-12-14T19:34:00Z,00000200,01000000,0000.02,0000.10,-000.24,0000.37,0000.19,0000.17,0000.04,0000.27,-000.04,20.0,26.4,,00.0,0643.9,31.1
2021-12-14T19:35:00Z,00000200,01000000,0000.24,-000.25,0000.05,0000.08,0000.23,0000.13,0000.44,-000.08,-000.05,20.0,26.4,,00.0,0644.0,31.1
2021-12-14T19:36:00Z,00000200,01000000,-000.02,-000.15,-000.06,0000.14,0000.23,0000.02,-000.05,0000.17,0000.13,20.1,26.5,,00.0,0643.9,31.1
2021-12-14T19:37:00Z,00000200,01000000,-000.04,-000.34,-000.02,0000.08,0000.25,-000.29,0000.09,-000.04,0000.17,20.1,26.5,,00.0,0644.0,31.1
2021-12-14T19:38:00Z,00000200,01000000,0000.10,-000.04,-000.05,0000.20,0000.26,0000.03,0000.36,-000.03,0000.05,20.2,26.5,,00.0,0644.0,31.1
2021-12-14T19:39:00Z,00000200,01000000,-000.18,-000.17,0000.31,0000.02,-000.00,0000.12,-000.21,0000.17,-000.03,20.2,26.5,,00.0,0644.0,31.1
2021-12-14T19:40:00Z,00000200,01000000,-000.49,-000.28,-000.02,0000.17,0000.24,-000.39,-000.04,0000.38,-000.37,20.2,26.6,,00.0,0644.0,31.2
2021-12-14T19:41:00Z,00000200,01000000,0000.77,-000.03,0000.01,0000.31,0000.08,-000.17,0000.30,0000.02,0000.66,20.1,26.6,,00.0,0644.0,31.2
2021-12-14T19:42:00Z,00000200,01000000,0000.48,-000.38,0000.03,0000.56,0000.19,-000.14,0000.14,-000.11,-000.17,20.1,26.5,,00.0,0643.9,31.1
2021-12-14T19:43:00Z,00000200,01000000,0000.04,-000.00,-000.19,-000.08,-000.03,-000.32,-000.06,0000.30,0000.15,20.0,26.5,,00.0,0643.9,31.1
2021-12-14T19:44:00Z,00000200,01000000,-000.23,-000.18,-000.12,0000.38,0000.06,0000.12,0000.03,-000.37,-000.38,19.9,26.5,,00.0,0643.9,31.1
2021-12-14T19:45:00Z,00000200,01000000,-000.38,-000.22,-000.06,-000.26,0000.25,0000.04,-000.21,-000.02,0000.10,19.8,26.4,,00.0,0643.9,31.1
2021-12-14T19:46:00Z,00000200,01000000,0000.02,-000.25,0000.29,-000.84,0000.28,-000.07,0000.21,0000.00,0000.05,19.8,26.4,,00.0,0643.9,31.1
2021-12-14T19:47:00Z,00000200,01000000,0000.87,0000.11,0000.03,0000.22,0000.16,0000.00,-000.11,0000.09,0000.16,19.8,26.4,,00.0,0643.9,31.1
2021-12-14T19:48:00Z,00000200,01000000,0000.34,-000.03,0000.12,0000.22,-000.02,0000.16,0000.08,0000.03,-000.37,19.8,26.4,,00.0,0643.9,31.1
2021-12-14T19:49:00Z,00000200,01000000,-000.05,0000.01,-000.13,0000.65,0000.24,0000.01,-000.03,-000.31,0000.36,19.9,26.4,,00.0,0643.9,31.1
2021-12-14T19:50:00Z,00000200,01000000,-000.16,0000.24,-000.11,0000.12,0000.75,-000.06,0000.10,0000.13,0000.01,20.0,26.4,,00.0,0644.0,31.1
2021-12-14T19:51:00Z,00000200,01000000,0000.36,0000.18,0000.21,0000.30,0000.05,-000.19,-000.05,-000.05,-000.04,20.0,26.4,,00.0,0643.9,31.1
2021-12-14T19:52:00Z,00000200,01000000,0000.76,-000.24,-000.04,0000.56,0000.27,-000.17,-000.15,-000.01,-000.14,20.0,26.4,,00.0,0644.0,31.2
2021-12-14T19:53:00Z,00000200,01000000,-000.46,-000.30,-000.02,0000.01,-000.05,0000.06,-000.23,-000.16,-000.44,20.1,26.5,,00.0,0644.0,31.1
2021-12-14T19:54:00Z,00000200,01000000,-000.29,-000.16,0000.14,-000.22,0000.05,-000.07,-000.16,0000.35,0000.06,20.0,26.5,,00.0,0644.0,31.1
2021-12-14T19:55:00Z,00000200,01000000,0000.17,0000.08,-000.07,-000.31,0000.07,-000.07,0000.15,-000.28,0000.32,20.0,26.5,,00.0,0644.0,31.1
2021-12-14T19:56:00Z,00000200,01000000,-000.29,-000.23,0000.22,0001.20,0000.12,-000.05,-000.31,-000.55,-000.28,20.0,26.4,,00.0,0644.0,31.1
2021-12-14T19:57:00Z,00000200,41000000,,,,,,,-000.20,-000.02,-000.20,20.0,26.5,,00.0,0643.8,31.1
2021-12-14T19:58:00Z,00000200,61000000,,,,,,,-000.04,-000.23,-000.10,19.5,26.5,,00.0,0643.0,31.1
2021-12-14T19:59:00Z,00000200,21000000,,,,,,,-000.35,-000.31,0000.06,19.5,26.6,,00.0,0643.0,31.1
